Notices

What's New in latest Release from April 7th, 2021:

- Updated Glossary, including Speed of Maximum Gust, and Total Hourly Precipitation

- Updated national and regional climate services offices contacts and prices information

- Addition of station inventory lists for 1981-2010, 1971-2000, and 1961-1990 Normals.

If you haven't already, please take our survey and provide feedback about our website: https://eccc.sondage-survey.ca/f/LanguageSelection.aspx?s=442ca660-fcf1-47c0-95a9-59707d6fd709

Hourly Data Report for October 07, 2015

IQALUIT CLIMATE
NUNAVUT

63°44'50.000" N
68°32'40.000" W
33.50 m
2402592
71321
XFB

Download Data

Hourly Data (October 2015)
Hourly Data Report for October 7, 2015
TIME
LST
Temp Definition
°C
Dew Point Definition
°C
Rel Hum Definition
%
Precip. Amount Definition
mm

Wind Dir Definition
10's deg

Wind Spd Definition
km/h
Visibility Definition
km
Stn Press Definition
kPa
Hmdx Definition


Wind Chill Definition


Weather Definition


00:00 -2.2 -4.7 83 0.0 12 17   100.39   -8 LegendNANA
01:00 -2.0 -5.2 78 0.0 14 22   100.35   -8 LegendNANA
02:00 -2.2 -5.6 77 0.0 15 21   100.29   -8 LegendNANA
03:00 -2.5 -5.8 78 0.0 14 21   100.26   -9 LegendNANA
04:00 -2.6 -5.6 80 0.0 13 22   100.20   -9 LegendNANA
05:00 -3.0 -5.9 80 0.0 13 24   100.18   -10 LegendNANA
06:00 -2.9 -5.6 81 0.0 15 24   100.13   -10 LegendNANA
07:00 -2.8 -5.8 80 0.0 14 27   100.08   -10 LegendNANA
08:00 -3.0 -6.3 78 0.0 12 24   100.05   -10 LegendNANA
09:00 -2.7 -6.7 74 0.0 12 21   100.00   -9 LegendNANA
10:00 -2.4 -6.5 73 0.0 11 22   99.94   -9 LegendNANA
11:00 -1.9 -5.8 75 0.0 12 24   99.89   -8 LegendNANA
12:00 -1.5 -5.6 73 0.0 12 23   99.85   -8 LegendNANA
13:00 -1.1 -5.2 74 0.0 12 24   99.80   -7 LegendNANA
14:00 -0.9 -5.1 73 0.0 13 23   99.78   -7 LegendNANA
15:00 -0.9 -5.2 72 0.0 13 21   99.76   -7 LegendNANA
16:00 -1.0 -4.9 74 0.0 13 18   99.75   -6 LegendNANA
17:00 -2.0 -4.2 84 0.0 12 14   99.73   -7 LegendNANA
18:00 -2.1 -3.9 88 0.2 11 17   99.71   -7 LegendNANA
19:00 -2.0 -3.9 86 0.0 10 17   99.69   -7 LegendNANA
20:00 -2.2 -3.6 90 0.2 11 14   99.68   -7 LegendNANA
21:00 -2.1 -3.7 89 0.2 11 14   99.66   -7 LegendNANA
22:00 -2.2 -3.3 92 0.2 12 11   99.64   -6 LegendNANA
23:00 -2.3 -3.3 92 0.2 12 10   99.64   -6 LegendNANA

Notes on Data Quality.

Legend

  • E = Estimated
  • M = Missing
  • NA = Not Available*
  • [empty] = Indicates an unobserved value
Date modified: